Wind_Speed
9 11 12 11 12 14 11 10 11 10 10 10 11 12 11 12 14 12 13 15 13 12 15 15 14 14 14 13 14 17 18 17 18 17 15 17 19 17 17 17 17 19
8 11 11 10 11 14 12 11 12 12 11 11 12 13 12 12 15 13 14 17 15 14 15 15 15 14 14 15 15 16 19 19 18 18 17 19 20 19 18 18 19 21
7 10 10 10 11 12 12 11 13 13 12 12 13 13 12 13 16 14 13 16 17 16 16 16 17 16 16 17 16 17 20 20 20 20 20 20 21 20 19 20 21 22
6 9 9 9 11 12 13 11 12 13 12 13 14 13 12 14 16 15 13 15 17 17 17 17 18 18 18 19 18 19 21 22 23 23 22 21 20 20 20 22 24 24
6 7 7 9 10 12 13 12 12 13 14 14 14 14 13 14 16 15 14 16 17 18 18 18 18 18 18 19 19 20 22 24 25 24 22 20 21 22 23 25 26 25
5 6 8 8 8 11 12 12 13 14 15 15 15 15 13 15 16 15 16 18 18 18 19 19 19 20 21 21 21 22 24 26 25 24 22 23 24 26 26 27 27 26
5 7 8 6 8 11 11 11 13 15 15 15 15 14 14 16 17 16 17 19 19 19 21 21 22 22 23 23 24 26 27 27 27 26 25 26 26 26 27 28 28 27
5 7 7 7 8 10 10 11 13 15 15 15 14 15 15 16 17 17 19 20 20 21 22 23 24 24 25 27 27 28 28 29 28 26 24 25 25 26 27 28 28 29
5 6 7 8 9 9 10 11 13 15 15 15 15 16 16 17 18 19 20 20 21 23 24 24 26 27 27 28 27 27 28 27 25 24 24 25 26 28 29 29 30 31
6 6 8 9 9 9 11 12 13 15 15 15 16 17 17 17 19 21 22 22 22 23 25 26 28 28 29 29 28 27 27 26 25 26 27 28 28 29 31 31 31 32
6 7 7 8 9 10 10 11 13 14 15 16 16 17 18 19 20 22 22 22 22 25 28 29 29 29 28 27 26 25 25 27 29 30 31 32 33 34 33 33 33 34
6 6 7 9 10 10 11 12 14 15 16 17 16 17 18 19 21 22 21 23 26 28 29 29 27 26 25 25 25 25 25 27 30 32 34 36 38 39 37 35 35 36
6 7 8 10 9 10 12 13 13 15 16 17 17 17 18 20 21 23 25 29 30 28 26 25 24 24 24 25 26 27 28 29 31 33 36 38 40 40 38 36 35 35
7 8 9 9 9 11 12 12 12 13 15 17 18 18 20 23 25 27 29 29 26 24 24 23 23 23 25 26 27 29 30 31 32 34 37 40 40 38 35 33 33 33
7 8 8 7 8 10 11 11 12 14 16 19 20 21 23 25 25 26 26 25 24 23 22 22 22 24 26 27 28 30 32 32 35 38 40 42 42 37 32 30 31 32
8 7 6 7 8 10 11 12 14 16 19 21 21 22 23 23 24 24 24 23 22 21 21 21 22 23 24 27 29 31 33 35 38 39 39 41 41 36 31 30 30 30
7 5 6 9 10 11 13 15 17 19 19 19 20 22 22 22 23 23 22 21 21 20 20 21 22 23 25 27 29 31 34 36 37 36 37 40 38 33 30 30 30 31
7 7 8 11 12 12 14 17 18 16 16 18 21 22 21 21 23 22 21 20 20 19 20 20 22 24 26 28 30 32 34 34 34 36 39 39 35 31 31 32 34 37
9 10 11 12 12 13 15 17 15 14 17 21 21 19 19 21 21 20 19 19 19 19 20 21 23 24 27 29 30 31 32 33 35 38 40 37 32 30 31 33 37 40
10 10 11 11 10 12 14 13 13 17 21 20 17 17 19 20 19 18 18 18 19 19 20 21 23 25 28 29 29 30 33 35 38 39 38 35 33 32 33 35 37 39
9 8 9 9 10 12 11 11 15 19 19 16 15 18 19 17 16 17 17 18 19 18 19 22 25 26 27 28 30 33 36 37 38 39 38 37 37 37 36 37 39 40
6 6 8 10 11 11 10 14 18 18 14 14 17 17 16 15 15 17 17 18 18 18 19 22 24 25 27 30 32 35 36 37 39 41 41 41 40 40 40 40 40 39
3 4 8 12 12 10 14 18 17 13 12 15 16 15 14 15 16 16 17 17 18 18 18 21 24 26 28 31 33 35 37 40 42 42 42 42 42 42 42 42 41 37
3 6 11 14 12 12 16 17 12 10 13 15 14 14 14 15 15 15 16 16 16 16 17 19 23 25 28 29 32 35 38 40 41 41 41 41 43 44 44 42 41 38
6 11 14 14 12 13 14 12 8 11 14 14 13 13 13 13 14 16 16 15 15 15 16 18 20 23 26 28 31 34 36 38 38 39 42 43 44 46 46 44 43 41
7 12 12 10 10 12 12 10 9 12 14 13 12 12 12 14 15 15 14 13 15 16 16 16 18 21 25 27 30 33 34 36 39 40 42 45 44 42 41 40 41 41
Wind_Direction
10 12 11 11 9 7 8 6 5 2 0 0 355 355 357 353 358 3 359 4 9 353 353 5 3 4 10 358 350 358 359 354 352 351 343 338 339 339 336 332 326 322
1 7 7 3 5 9 10 7 4 360 357 357 350 351 356 352 354 1 355 357 1 356 355 356 356 360 0 354 351 350 350 350 349 343 336 335 337 336 334 330 324 323
1 8 5 359 3 9 7 360 360 360 355 352 350 351 354 350 355 359 352 352 354 350 350 348 348 347 344 347 345 338 341 343 340 336 332 331 332 330 328 327 325 324
357 5 1 357 357 0 1 354 354 358 352 348 349 351 350 346 352 355 347 346 347 345 344 341 341 338 335 338 335 328 332 334 332 329 325 325 328 325 321 320 320 318
344 352 346 349 349 347 352 352 350 350 345 343 346 347 348 344 346 349 343 340 340 341 341 337 334 333 331 330 327 323 326 328 327 324 320 319 319 316 313 313 314 313
335 334 329 337 339 337 344 347 343 342 340 340 340 338 341 344 341 339 337 336 335 334 333 332 330 328 327 327 326 323 323 324 324 320 315 311 309 309 310 311 312 310
313 321 328 333 333 336 343 342 337 340 339 337 337 336 334 337 337 334 333 334 332 329 328 327 328 328 326 325 323 321 320 319 318 317 313 312 310 310 311 312 312 308
302 313 328 331 327 331 337 337 336 337 336 332 333 337 335 332 332 332 332 331 330 329 328 326 325 324 323 322 319 317 317 317 318 316 315 316 315 312 311 310 307 305
305 306 319 327 327 328 329 332 333 333 334 334 332 333 333 330 330 331 330 328 326 326 327 326 324 324 323 322 321 319 319 320 319 316 314 313 314 312 310 308 305 303
304 302 310 321 324 321 319 324 331 333 335 335 332 330 329 327 327 328 326 324 323 323 325 325 324 323 322 321 321 321 319 316 313 311 311 313 315 315 313 309 306 302
306 311 314 322 328 326 323 328 335 336 335 333 330 327 325 325 326 328 328 326 324 324 323 322 322 321 322 322 319 316 313 310 309 310 313 315 318 318 314 309 305 303
308 315 315 322 330 325 322 329 333 331 330 329 325 321 323 328 330 330 330 326 324 325 324 324 325 325 323 320 315 313 312 312 313 314 315 317 318 318 316 312 308 305
305 306 307 312 317 319 320 323 325 326 327 327 326 327 329 330 327 325 326 326 327 328 327 325 326 324 321 317 315 315 315 314 313 314 315 317 318 318 317 315 312 309
306 311 311 303 307 325 331 324 323 330 331 331 333 332 327 324 323 325 329 331 330 328 325 325 326 323 320 317 316 315 314 314 315 315 316 319 322 324 322 319 316 313
316 315 316 312 318 335 342 340 337 335 333 334 332 325 322 323 325 330 332 331 328 326 327 330 328 321 317 317 317 316 316 315 314 315 319 324 329 332 330 326 322 318
322 316 327 342 345 345 340 336 334 332 333 333 325 320 324 326 326 330 330 328 328 330 332 333 326 319 317 317 317 316 315 314 314 318 323 328 331 332 331 327 323 320
329 339 351 350 346 345 337 330 332 333 331 323 317 322 328 325 325 329 330 331 332 331 333 331 322 317 317 317 316 316 316 317 319 323 327 330 331 331 329 324 318 316
4 7 355 345 340 339 335 334 336 333 319 313 319 327 327 324 328 332 334 336 334 333 335 328 318 317 318 318 319 319 320 321 324 327 328 330 332 330 325 319 316 318
7 358 350 347 343 335 331 335 332 315 309 319 327 329 326 328 332 335 337 337 335 336 335 325 319 321 322 321 322 322 322 324 325 327 329 333 335 330 322 318 318 320
354 354 352 344 336 332 334 332 315 308 319 330 332 328 329 334 337 339 340 337 335 338 334 326 325 326 324 325 325 323 322 323 325 329 334 336 334 329 324 321 321 321
351 353 336 320 325 335 335 317 310 322 336 337 328 329 336 341 341 340 340 338 340 343 339 332 331 330 328 328 324 320 322 326 331 336 338 335 332 330 327 324 322 321
352 331 301 310 336 341 322 315 327 341 345 329 328 340 349 346 340 340 342 343 344 346 343 337 334 334 333 328 324 323 328 334 338 339 338 335 332 330 326 323 322 320
336 310 307 329 345 334 320 333 347 351 336 331 343 356 352 343 343 346 346 346 347 348 347 342 338 337 335 330 327 330 335 340 341 339 337 335 333 331 330 330 332 329
327 312 323 338 344 332 335 351 1 343 338 349 359 359 349 345 347 346 346 349 350 348 347 344 341 338 336 333 332 336 341 343 342 340 341 342 342 343 343 341 342 339
333 320 332 345 348 342 350 5 360 342 353 2 2 358 352 344 341 344 353 356 347 341 345 347 345 341 336 334 338 344 347 347 348 351 352 353 352 351 349 347 345 342
336 336 348 354 352 355 5 9 353 350 1 3 359 356 348 342 345 355 3 353 341 346 353 352 350 343 334 337 347 353 354 354 358 1 359 356 355 352 348 344 341 338
Height
1558 1558 1557 1556 1555 1555 1554 1553 1553 1552 1551 1550 1550 1549 1548 1547 1546 1544 1544 1543 1542 1541 1540 1538 1538 1536 1536 1535 1534 1533 1532 1531 1530 1529 1528 1527 1525 1524 1523 1522 1520 1519
1557 1557 1557 1556 1555 1555 1554 1553 1553 1552 1551 1551 1550 1549 1548 1547 1546 1545 1544 1543 1542 1541 1539 1538 1537 1536 1535 1534 1533 1532 1531 1530 1529 1528 1527 1526 1524 1523 1522 1520 1519 1518
1557 1557 1557 1557 1555 1555 1554 1554 1553 1552 1552 1551 1550 1549 1548 1547 1546 1545 1544 1543 1542 1540 1539 1538 1537 1535 1534 1533 1532 1532 1531 1529 1528 1527 1526 1525 1523 1522 1520 1519 1518 1516
1557 1557 1557 1557 1556 1555 1554 1554 1553 1552 1552 1551 1550 1549 1548 1547 1546 1545 1544 1543 1542 1541 1540 1539 1538 1536 1535 1534 1532 1531 1529 1528 1527 1526 1524 1523 1521 1520 1519 1518 1517 1515
1557 1556 1556 1556 1556 1555 1555 1554 1554 1553 1552 1551 1550 1549 1548 1547 1546 1545 1544 1543 1542 1541 1540 1539 1538 1536 1535 1533 1532 1530 1528 1526 1525 1524 1522 1521 1520 1519 1517 1515 1514 1513
1556 1556 1555 1555 1555 1554 1554 1554 1553 1553 1552 1551 1550 1548 1547 1546 1545 1544 1543 1542 1541 1540 1539 1537 1536 1535 1533 1532 1530 1529 1527 1525 1523 1522 1520 1519 1518 1516 1515 1513 1511 1510
1555 1555 1554 1554 1554 1553 1553 1553 1553 1552 1551 1550 1549 1548 1547 1546 1545 1544 1543 1541 1540 1539 1537 1536 1535 1533 1532 1531 1529 1528 1526 1524 1522 1520 1519 1517 1516 1514 1512 1511 1509 1508
1555 1554 1554 1554 1554 1553 1552 1553 1552 1552 1551 1550 1548 1548 1547 1545 1544 1543 1542 1541 1539 1538 1537 1535 1534 1532 1531 1530 1528 1526 1524 1522 1520 1518 1517 1515 1513 1512 1510 1509 1507 1505
1554 1554 1554 1554 1553 1553 1552 1552 1551 1551 1550 1549 1548 1547 1546 1545 1544 1542 1541 1540 1538 1537 1535 1534 1533 1531 1530 1528 1526 1524 1522 1520 1518 1516 1514 1513 1511 1509 1508 1506 1504 1502
1553 1553 1553 1553 1553 1552 1552 1551 1550 1550 1549 1548 1547 1547 1545 1544 1543 1541 1540 1538 1537 1536 1534 1533 1531 1529 1528 1526 1524 1522 1520 1517 1515 1513 1511 1510 1509 1507 1505 1503 1501 1499
1553 1552 1552 1552 1552 1552 1551 1550 1550 1549 1549 1548 1547 1546 1544 1543 1542 1540 1539 1537 1536 1534 1532 1531 1529 1527 1525 1523 1521 1520 1517 1514 1512 1511 1510 1508 1506 1504 1502 1500 1497 1495
1552 1552 1552 1551 1551 1551 1550 1550 1549 1549 1548 1547 1546 1545 1543 1542 1541 1539 1538 1536 1534 1533 1531 1529 1527 1525 1523 1520 1519 1517 1515 1512 1511 1509 1507 1505 1503 1500 1498 1496 1493 1491
1551 1551 1551 1550 1550 1550 1550 1549 1548 1548 1547 1546 1545 1544 1542 1541 1539 1538 1536 1534 1532 1531 1529 1527 1525 1523 1520 1518 1517 1515 1513 1511 1509 1507 1505 1502 1500 1497 1494 1492 1489 1487
1550 1550 1550 1549 1549 1549 1548 1548 1547 1547 1546 1545 1544 1542 1541 1539 1538 1536 1534 1533 1531 1529 1527 1526 1523 1520 1518 1517 1515 1513 1511 1509 1506 1504 1502 1500 1497 1494 1491 1488 1486 1484
1550 1549 1549 1549 1548 1548 1548 1547 1547 1546 1545 1544 1542 1541 1540 1538 1536 1535 1533 1531 1530 1528 1526 1525 1522 1519 1517 1516 1514 1511 1509 1506 1504 1502 1500 1497 1493 1490 1487 1485 1483 1481
1549 1549 1549 1549 1548 1548 1547 1546 1546 1545 1543 1542 1541 1539 1539 1537 1535 1533 1531 1530 1528 1526 1525 1524 1521 1518 1517 1515 1512 1510 1507 1504 1502 1500 1498 1495 1491 1488 1485 1484 1482 1480
1549 1548 1548 1548 1547 1547 1546 1545 1544 1544 1542 1541 1539 1538 1537 1535 1533 1532 1530 1529 1527 1526 1525 1523 1519 1517 1515 1513 1511 1509 1506 1503 1501 1499 1496 1493 1490 1487 1484 1481 1479 1477
1548 1548 1547 1546 1546 1546 1545 1544 1544 1543 1541 1540 1538 1537 1535 1533 1532 1530 1529 1528 1526 1525 1525 1521 1517 1516 1514 1511 1509 1507 1505 1502 1500 1497 1494 1491 1488 1485 1483 1480 1476 1472
1547 1547 1546 1546 1546 1546 1545 1544 1543 1541 1540 1538 1537 1535 1534 1532 1531 1529 1528 1527 1526 1525 1523 1519 1516 1515 1512 1510 1508 1506 1503 1501 1498 1495 1492 1489 1486 1484 1481 1478 1473 1469
1547 1546 1546 1546 1545 1545 1544 1543 1541 1540 1539 1537 1535 1534 1532 1531 1530 1529 1528 1527 1525 1524 1521 1517 1515 1514 1511 1509 1507 1504 1502 1499 1496 1493 1490 1487 1484 1482 1478 1475 1471 1467
1546 1546 1546 1545 1544 1544 1543 1542 1540 1539 1537 1536 1534 1533 1532 1530 1530 1528 1527 1526 1524 1523 1520 1516 1514 1512 1509 1507 1505 1502 1500 1497 1494 1491 1487 1484 1481 1478 1475 1471 1468 1464
1546 1545 1544 1544 1544 1543 1542 1540 1539 1537 1536 1535 1533 1532 1531 1530 1529 1527 1526 1525 1523 1522 1519 1515 1513 1511 1508 1505 1503 1500 1498 1495 1492 1488 1485 1481 1478 1474 1471 1467 1464 1460
1544 1544 1543 1543 1543 1542 1540 1539 1538 1536 1535 1534 1532 1532 1531 1529 1528 1527 1525 1524 1522 1521 1519 1515 1512 1509 1507 1504 1501 1499 1496 1492 1489 1485 1481 1478 1474 1470 1467 1462 1458 1455
1543 1543 1543 1543 1542 1540 1539 1538 1537 1536 1534 1533 1532 1531 1530 1529 1527 1526 1524 1523 1521 1520 1518 1515 1511 1508 1506 1504 1501 1498 1494 1490 1486 1482 1478 1474 1470 1465 1462 1457 1454 1451
1543 1542 1542 1541 1540 1539 1538 1537 1536 1535 1534 1532 1532 1531 1529 1528 1526 1524 1523 1522 1520 1518 1517 1515 1512 1508 1505 1503 1501 1498 1494 1489 1484 1479 1474 1470 1466 1461 1457 1454 1451 1447
1542 1542 1541 1540 1539 1538 1537 1537 1535 1534 1533 1532 1531 1530 1528 1526 1525 1523 1522 1521 1519 1518 1516 1515 1512 1509 1505 1503 1501 1498 1493 1488 1483 1478 1473 1468 1464 1460 1456 1452 1448 1445